"TOA5","AWS1","CR1000","7964","CR1000.Std.14","CPU:AWS1_114.CR1","64363","TBL110"
"TIMESTAMP","RECORD","Wind_spd_WVc(1)","Wind_spd_WVc(2)","Air_Temp_Avg","Humidity_Avg","SW_upper_Wm2_Avg","Rain_Tot","Press_Avg","Issui_Tot","Depth_cm","SR50A_Raw","Quality","Ground_Temp_Avg(1)","Ground_Temp_Avg(2)","SW_lower_Wm2_Avg","Albedo_Avg","SWC_per(1)","SWC_per(2)","Period(1)","Period(2)"
"TS","RN","","","","","","","","","","","","","","","","","","",""
"","","WVc","WVc","Avg","Avg","Avg","Tot","Avg","Tot","Smp","Smp","Smp","Avg","Avg","Avg","Avg","Smp","Smp","Smp","Smp"
"2017-04-19 00:00:00",284317,0.286,145.7,2.514,78.35,0,0,852.204,0,15.32,3.012,186,0.316,0.539,0,0,55.2,64.3,34.56,36.65
"2017-04-19 00:10:00",284318,0.42,143.7,3.425,73.64,0,0,852.1326,0,14.98,3.013,172,0.321,0.548,0.5801734,0,55.15,64.24,34.55,36.63
"2017-04-19 00:20:00",284319,0.288,172,3.169,74.88,0,0,852.081,0,15.09,3.01,172,0.322,0.544,0.07204962,0,55.15,64.18,34.55,36.62
"2017-04-19 00:30:00",284320,0.359,163.5,3.636,70.83,0,0,852.0242,0,14.71,3.011,172,0.326,0.561,0.3488741,0,55.09,64.12,34.53,36.61
"2017-04-19 00:40:00",284321,0.629,141.1,4.294,68.53,0,0,851.8679,0,15.34,3,170,0.321,0.567,0.5991558,0,55.09,64.12,34.53,36.61
"2017-04-19 00:50:00",284322,0.852,140.2,5.194,67.47,0,0,851.8326,0,15.12,2.998,183,0.292,0.59,0.5498587,0,55.09,64.05,34.53,36.59
"2017-04-19 01:00:00",284323,0.76,148.4,5.354,67.13,0,0,851.6254,0,15.42,2.996,172,0.288,0.586,0.087219,0,55.09,64.05,34.53,36.59
"2017-04-19 01:10:00",284324,0.723,147.7,5.624,64.29,0,0,851.555,0,15.55,2.991,179,0.264,0.585,0.1554773,0,55.09,63.99,34.53,36.58
"2017-04-19 01:20:00",284325,0.886,144.9,6.041,61.42,0,0,851.3597,0,14.78,3,182,0.262,0.562,0.09480325,0,55.03,63.81,34.52,36.54
"2017-04-19 01:30:00",284326,0.894,151.9,5.878,61.82,0,0,851.3342,0,15.07,2.998,181,0.252,0.553,0.00379213,0,55.03,63.75,34.52,36.53
"2017-04-19 01:40:00",284327,0.685,138.9,5.48,62.42,0,0,851.2781,0,15.53,2.993,192,0.264,0.554,0,0,54.97,63.69,34.51,36.51
"2017-04-19 01:50:00",284328,0.657,145,6.121,56.86,0.0196648,0,851.1093,0,15.41,2.99,176,0.31,0.55,0.0644659,0.08,54.97,63.63,34.51,36.5
"2017-04-19 02:00:00",284329,0.821,142,7.017,50.16,0.3696943,0,850.9865,0,15.08,2.991,193,0.357,0.517,0.3337031,0.715,54.97,63.63,34.51,36.5
"2017-04-19 02:10:00",284330,0.974,135.5,7.137,48.75,0.00786585,0,850.9421,0,15.23,2.988,177,0.392,0.497,0,0,54.92,63.63,34.49,36.5
"2017-04-19 02:20:00",284331,0.861,144.3,7.245,48.49,0,0,851.0558,0,15.35,2.988,177,0.373,0.486,0,0,54.92,63.57,34.49,36.49
"2017-04-19 02:30:00",284332,1.018,134.7,7.035,52.11,0,0,851.0452,0,15.49,2.987,183,0.347,0.466,0,0,54.92,63.51,34.49,36.47
"2017-04-19 02:40:00",284333,1.157,141.4,7.059,53.46,0,0,850.9294,0,15.17,2.99,172,0.303,0.464,0,0,54.63,63.45,34.42,36.46
"2017-04-19 02:50:00",284334,1.405,141.2,7.105,55.66,0,0,850.8156,0,15.08,2.991,182,0.264,0.487,0,0,54.58,63.45,34.41,36.46
"2017-04-19 03:00:00",284335,0.929,147.2,6.77,60.64,0,0,850.8135,0,15.29,2.991,178,0.255,0.505,0,0,54.58,63.39,34.41,36.44
"2017-04-19 03:10:00",284336,1.274,150.7,6.475,65.16,0,0,850.6449,0,15.2,2.993,176,0.249,0.5,0,0,54.58,63.39,34.41,36.44
"2017-04-19 03:20:00",284337,1.406,149.2,6.41,67.74,0,0,850.3563,0,15.1,2.994,175,0.256,0.498,0,0,54.52,63.32,34.4,36.43
"2017-04-19 03:30:00",284338,1.066,138.6,6.426,70.93,0,0,850.1414,0,15.26,2.992,171,0.248,0.505,0,0,54.46,63.26,34.38,36.42
"2017-04-19 03:40:00",284339,0.6,114.4,6.383,72.57,0,0,850.3584,0,15.3,2.993,180,0.247,0.504,0,0,54.46,63.26,34.38,36.42
"2017-04-19 03:50:00",284340,0.813,112.5,6.271,74.69,0,0,850.3099,0,15.35,2.993,184,0.247,0.518,0,0,54.41,63.2,34.37,36.4
"2017-04-19 04:00:00",284341,1.049,132.8,6.175,76.88,0,0,850.0697,0,15.3,2.993,180,0.248,0.508,0,0,54.29,63.2,34.34,36.4
"2017-04-19 04:10:00",284342,0.808,90.8,6.213,79.73,0,0,850.1414,0,15.08,2.997,176,0.247,0.51,0,0,54.29,63.14,34.34,36.39
"2017-04-19 04:20:00",284343,0.945,96.6,5.682,94.7,0,0,849.9792,0,14.76,3.002,184,0.247,0.507,0,0,54.24,63.14,34.33,36.39
"2017-04-19 04:30:00",284344,1.074,101.1,5.617,100,0,0,849.9539,0,14.87,3,190,0.247,0.515,0.03790839,0,54.24,63.14,34.33,36.39
"2017-04-19 04:40:00",284345,0.878,72.21,5.831,100,0,0,849.878,0,14.6,3.002,186,0.247,0.52,0.1213068,0,54.24,63.14,34.33,36.39
"2017-04-19 04:50:00",284346,0.836,59.73,5.842,100,0.2044447,0,849.9728,0,15.32,2.994,251,0.247,0.527,0.01137252,0.032,54.24,63.08,34.33,36.38
"2017-04-19 05:00:00",284347,0.545,87.5,5.832,100,0.1847866,0,850.0845,0,14.77,3.001,196,0.247,0.524,0,0,54.18,63.02,34.32,36.36
"2017-04-19 05:10:00",284348,0.737,92.3,5.883,100,0.4324792,0,849.9918,0,14.51,3.002,191,0.247,0.548,0.03790839,0.08,54.24,63.02,34.33,36.36
"2017-04-19 05:20:00",284349,0.803,94.1,5.943,100,0.2083763,0,849.8212,0.5,14.48,3.003,187,0.247,0.527,0.06444426,0.153,54.18,63.02,34.32,36.36
"2017-04-19 05:30:00",284350,1.092,36.08,5.69,100,0,0,850.0613,0,14.31,3.007,188,0.249,0.518,0,0,54.18,62.96,34.32,36.35
"2017-04-19 05:40:00",284351,0.679,47.83,5.273,100,0.318462,0,850.3795,0.5,14.04,3.011,179,0.247,0.525,0,0,54.18,62.96,34.32,36.35
"2017-04-19 05:50:00",284352,0.622,59.02,5.055,100,1.556925,0,850.843,1,13.07,3.023,186,0.25,0.517,0.1213068,0.048,54.18,62.9,34.32,36.34
"2017-04-19 06:00:00",284353,0.564,29.5,4.532,100,2.016926,0,851.0643,0,13.41,3.022,186,0.258,0.521,0.06065342,0.024,54.12,62.9,34.3,36.34
"2017-04-19 06:10:00",284354,0.479,57.08,4.224,100,1.348549,0,851.2244,0,13.88,3.018,180,0.271,0.511,0.07581677,0.033,54.12,62.9,34.3,36.34
"2017-04-19 06:20:00",284355,0.467,52.9,4.043,100,2.347183,0,851.414,0,14.05,3.018,181,0.291,0.505,0.470064,0.121,54.12,62.84,34.3,36.32
"2017-04-19 06:30:00",284356,0.287,21.63,3.917,100,2.351114,0,851.4583,0.5,13.75,3.021,193,0.294,0.507,0.4549007,0.144,54.07,62.84,34.29,36.32
"2017-04-19 06:40:00",284357,0.41,51.3,3.813,100,3.247526,0,851.671,0,13.94,3.02,202,0.31,0.505,0.8377753,0.243,54.12,62.84,34.3,36.32
"2017-04-19 06:50:00",284358,0.429,65.12,3.633,100,3.978809,0,851.749,0,14.06,3.02,198,0.327,0.501,1.118297,0.278,54.12,62.84,34.3,36.32
"2017-04-19 07:00:00",284359,0.435,48.33,3.524,100,8.142405,0,851.8227,0,13.98,3.021,187,0.326,0.494,2.729404,0.332,54.12,62.84,34.3,36.32
"2017-04-19 07:10:00",284360,0.27,40.41,3.531,100,27.35234,0,851.9197,0,14.01,3.02,183,0.332,0.487,9.025987,0.328,54.12,62.84,34.3,36.32
"2017-04-19 07:20:00",284361,0.362,59.44,3.49,100,95.40099,0,852.0819,0,14.04,3.02,195,0.332,0.481,31.75207,0.334,54.12,62.84,34.3,36.32
"2017-04-19 07:30:00",284362,0.18,99.5,3.86,100,140.7051,0,852.0145,0,14.2,3.016,179,0.305,0.505,46.08143,0.325,54.12,62.84,34.3,36.32
"2017-04-19 07:40:00",284363,0.334,112.8,3.945,100,150.8999,0,852.1893,0,14.36,3.014,184,0.281,0.505,50.00495,0.326,54.18,62.84,34.32,36.32
"2017-04-19 07:50:00",284364,0.153,17.38,4.014,99.5,177.0295,0,852.3157,0,14.21,3.015,183,0.256,0.528,53.60246,0.312,54.18,62.9,34.32,36.34
"2017-04-19 08:00:00",284365,0.406,116.9,4.44,99,337.9432,0,852.2504,0,14.38,3.011,178,0.247,0.561,85.29008,0.271,54.18,62.9,34.32,36.34
"2017-04-19 08:10:00",284366,0.771,165.7,5.081,90.3,528.6744,0,852.2441,0,14.39,3.008,177,0.246,0.515,144.2907,0.274,54.18,62.9,34.32,36.34
"2017-04-19 08:20:00",284367,0.589,11.93,4.619,86,133.9427,0,852.2874,0,13.91,3.017,173,0.224,0.506,41.31635,0.307,54.24,62.96,34.33,36.35
"2017-04-19 08:30:00",284368,0.465,33.49,4.253,86.3,121.6997,0,852.2703,0,13.91,3.018,181,0.238,0.506,38.78786,0.317,54.24,62.96,34.33,36.35
"2017-04-19 08:40:00",284369,0.546,157.1,4.617,85.9,214.8972,0,852.2489,0,12.83,3.025,178,0.215,0.499,71.62228,0.328,54.24,63.02,34.33,36.36
"2017-04-19 08:50:00",284370,0.185,24.1,4.59,87.1,131.9356,0,852.2435,0,13.58,3.02,183,0.195,0.479,42.25205,0.314,54.24,63.02,34.33,36.36
"2017-04-19 09:00:00",284371,0.128,63.61,4.649,86.2,186.396,0,852.2422,0,13.67,3.017,194,0.174,0.455,60.63727,0.324,54.24,63.02,34.33,36.36
"2017-04-19 09:10:00",284372,0.215,139.6,4.635,81.7,131.3258,0,852.0671,0,13.57,3.018,179,0.189,0.433,42.32392,0.319,54.29,63.08,34.34,36.38
"2017-04-19 09:20:00",284373,0.309,323.2,4.452,81.8,38.8241,0,852.0839,0,13.85,3.019,179,0.155,0.422,11.53938,0.295,54.29,63.08,34.34,36.38
"2017-04-19 09:30:00",284374,0.633,286.9,3.894,89.6,30.85292,0,852.1976,0,13.59,3.024,203,0.155,0.419,10.15982,0.328,54.24,63.08,34.33,36.38
"2017-04-19 09:40:00",284375,0.966,303.1,3.468,89.6,48.93999,0,852.4314,0,13.58,3.026,200,0.159,0.419,17.68203,0.358,54.24,63.08,34.33,36.38
"2017-04-19 09:50:00",284376,0.971,307.6,3.275,89,107.5036,0,852.7894,0,13.67,3.026,196,0.164,0.447,38.13124,0.356,54.29,63.08,34.34,36.38
"2017-04-19 10:00:00",284377,0.644,225.7,3.028,92.8,70.08633,0,853.1328,0,13,3.033,170,0.178,0.49,25.38432,0.361,54.29,63.08,34.34,36.38
"2017-04-19 10:10:00",284378,0.691,266.8,2.932,93.9,235.5395,0,853.0022,0,13.69,3.026,190,0.198,0.533,80.4734,0.352,54.29,63.14,34.34,36.39
"2017-04-19 10:20:00",284379,0.611,260,3.159,93.9,199.408,0,852.8505,0,13.7,3.027,200,0.224,0.508,65.00642,0.33,54.35,63.14,34.36,36.39
"2017-04-19 10:30:00",284380,0.47,277.4,2.925,97.2,104.7234,0,852.9685,0,13.62,3.028,192,0.238,0.549,36.42876,0.346,54.29,63.14,34.34,36.39
"2017-04-19 10:40:00",284381,0.478,307.7,3.135,93.3,163.0704,0,852.9327,0,13.35,3.028,182,0.244,0.57,57.19555,0.351,54.29,63.14,34.34,36.39
"2017-04-19 10:50:00",284382,0.463,226,3.372,88.3,109.3932,0,853.0085,0,13.13,3.03,174,0.246,0.56,37.90824,0.346,54.35,63.14,34.36,36.39
"2017-04-19 11:00:00",284383,0.291,258.3,3.312,87.5,107.1407,0,853.0485,0,13.33,3.028,179,0.247,0.566,37.98415,0.354,54.35,63.14,34.36,36.39
"2017-04-19 11:10:00",284384,0.328,202.3,3.745,87.6,248.3019,0,853.0212,0,13.35,3.024,194,0.247,0.534,84.36127,0.34,54.35,63.14,34.36,36.39
"2017-04-19 11:20:00",284385,0.384,231.8,4.233,83.5,249.1315,0,853.0338,0,13.59,3.02,198,0.247,0.506,83.05344,0.332,54.35,63.14,34.36,36.39
"2017-04-19 11:30:00",284386,0.337,283.8,5.402,77.11,1002.809,0,852.9959,0,13.37,3.013,185,0.258,0.489,329.5109,0.325,54.41,63.14,34.37,36.39
"2017-04-19 11:40:00",284387,0.619,252,5.649,70.83,368.0113,0,853.0043,0,13.23,3.019,170,0.326,0.506,116.5554,0.305,54.35,63.14,34.36,36.39
"2017-04-19 11:50:00",284388,0.323,269.3,4.735,75.06,109.7389,0,853.0001,0,13.5,3.02,187,0.291,0.497,32.78208,0.292,54.29,63.14,34.34,36.39
"2017-04-19 12:00:00",284389,0.566,243.4,4.323,77.87,95.14657,0,853.038,0,13.65,3.02,187,0.263,0.455,30.32208,0.315,54.35,63.14,34.36,36.39
"2017-04-19 12:10:00",284390,0.646,247.4,4.255,74.06,289.6124,0,853.2023,0,13.55,3.018,182,0.26,0.416,99.59861,0.336,54.35,63.2,34.36,36.4
"2017-04-19 12:20:00",284391,0.48,262.1,5.078,68,386.7983,0,853.2444,0,13.68,3.016,186,0.247,0.488,126.045,0.315,54.35,63.2,34.36,36.4
"2017-04-19 12:30:00",284392,0.624,256.4,4.931,66,510.82,0,853.3939,0,13.53,3.014,181,0.244,0.498,177.6654,0.334,54.41,63.2,34.37,36.4
"2017-04-19 12:40:00",284393,1.269,271.4,5.312,61.07,451.3543,0,853.4572,0,13.32,3.018,189,0.239,0.504,146.1438,0.322,54.35,63.2,34.36,36.4
"2017-04-19 12:50:00",284394,1.063,275.6,5.076,62.44,474.9516,0,853.613,0,13.25,3.018,179,0.243,0.504,159.8581,0.329,54.35,63.2,34.36,36.4
"2017-04-19 13:00:00",284395,0.925,256.9,5.429,63.97,552.2367,0,853.6678,0,13.06,3.018,214,0.22,0.504,186.7412,0.331,54.41,63.2,34.37,36.4
"2017-04-19 13:10:00",284396,1.387,280.1,5.393,61.62,585.2865,0,853.7709,0,12.45,3.027,177,0.203,0.504,192.9977,0.326,54.41,63.26,34.37,36.42
"2017-04-19 13:20:00",284397,1.081,293.7,4.68,65.72,181.8504,0,853.9688,0,12.17,3.036,184,0.217,0.504,59.80659,0.328,54.41,63.26,34.37,36.42
"2017-04-19 13:30:00",284398,1.497,290.4,3.384,72.97,65.41962,0,854.264,0,12.36,3.04,179,0.251,0.468,22.70316,0.345,54.46,63.32,34.38,36.43
"2017-04-19 13:40:00",284399,0.818,282.5,2.956,77.95,96.80296,0,854.4406,0.5,12.27,3.04,181,0.247,0.421,34.80317,0.358,54.46,63.32,34.38,36.43
"2017-04-19 13:50:00",284400,1.134,320.8,2.984,75.65,76.99825,0,854.5365,0,12.39,3.039,192,0.138,0.423,27.43251,0.355,54.46,63.39,34.38,36.44
"2017-04-19 14:00:00",284401,0.818,286.4,3.031,78.16,66.97602,0,854.7668,0,12.46,3.04,183,0.151,0.419,23.44212,0.35,54.52,63.39,34.4,36.44
"2017-04-19 14:10:00",284402,0.651,280.9,2.901,77.92,118.789,0,854.7734,0,12.46,3.039,175,0.159,0.418,42.42016,0.358,54.52,63.45,34.4,36.46
"2017-04-19 14:20:00",284403,0.72,265.7,2.857,76.31,62.03172,0,854.8703,0,12.66,3.038,185,0.159,0.418,21.75199,0.349,54.52,63.51,34.4,36.47
"2017-04-19 14:30:00",284404,0.956,259.9,2.518,78.04,50.79896,0,855.1799,0,12.84,3.039,176,0.159,0.461,18.72793,0.367,54.58,63.51,34.41,36.47
"2017-04-19 14:40:00",284405,0.535,219.7,2.422,82.9,61.02163,0,855.3505,0,12.9,3.038,181,0.159,0.499,22.82822,0.374,54.58,63.57,34.41,36.49
"2017-04-19 14:50:00",284406,0.637,262.2,2.028,88.5,46.96807,0,855.6517,0,12.82,3.043,195,0.166,0.509,18.28501,0.392,54.58,63.57,34.41,36.49
"2017-04-19 15:00:00",284407,0.889,259.7,1.107,99.2,94.6758,0,855.9992,0,13.08,3.044,191,0.223,0.537,37.20773,0.407,54.63,63.57,34.42,36.49
"2017-04-19 15:10:00",284408,0.727,230.8,1.358,100,229.7573,0,855.9803,0,13.03,3.041,177,0.276,0.566,79.35081,0.352,54.58,63.63,34.41,36.5
"2017-04-19 15:20:00",284409,0.747,8.6,1.462,100,137.5288,0,856.1509,0,13.23,3.039,179,0.276,0.567,47.86191,0.349,54.58,63.63,34.41,36.5
"2017-04-19 15:30:00",284410,1.736,309.2,1.477,98.5,186.2785,0,856.3638,0,13.07,3.042,179,0.292,0.553,61.97195,0.334,54.58,63.63,34.41,36.5
"2017-04-19 15:40:00",284411,0.804,302.8,1.374,97.6,39.99633,0,856.3373,0,13.02,3.042,177,0.327,0.519,14.09429,0.353,54.58,63.69,34.41,36.51
"2017-04-19 15:50:00",284412,1.444,305.6,1.273,98.4,51.57898,0,856.4144,0,13.17,3.041,189,0.331,0.505,18.75326,0.365,54.63,63.69,34.42,36.51
"2017-04-19 16:00:00",284413,1.408,317.8,1.166,94.1,26.31437,0,856.524,0,13.17,3.042,187,0.331,0.494,10.14049,0.385,54.63,63.69,34.42,36.51
"2017-04-19 16:10:00",284414,1.914,316.9,1.215,93.2,40.25986,0,856.8674,0.5,13.09,3.042,180,0.33,0.478,15.23158,0.38,54.58,63.69,34.41,36.51
"2017-04-19 16:20:00",284415,0.958,279,1.25,93.5,36.28892,0,856.9655,0,13.32,3.04,205,0.321,0.469,13.42714,0.371,54.58,63.69,34.41,36.51
"2017-04-19 16:30:00",284416,0.923,292.2,1.259,91.8,22.04463,0,857.1595,0,13.12,3.042,190,0.317,0.432,8.320886,0.378,54.58,63.69,34.41,36.51
"2017-04-19 16:40:00",284417,1.353,305.4,1.248,90.7,59.44619,0,857.2712,0,13.12,3.042,186,0.32,0.439,21.49025,0.367,54.52,63.69,34.4,36.51
"2017-04-19 16:50:00",284418,0.863,276.5,1.248,88.1,45.40242,0,857.3849,0,13.12,3.042,191,0.317,0.444,15.75472,0.347,54.58,63.69,34.41,36.51
"2017-04-19 17:00:00",284419,1.051,302.7,1.237,87.4,20.91232,0,857.3997,0,13.12,3.042,192,0.326,0.46,7.593046,0.363,54.58,63.69,34.41,36.51
"2017-04-19 17:10:00",284420,0.947,303,1.291,87.4,46.36965,0,857.5515,0,13.14,3.041,208,0.319,0.465,16.34989,0.354,54.52,63.69,34.4,36.51
"2017-04-19 17:20:00",284421,0.839,328.8,1.312,89.3,15.29455,0,857.7601,0,13.11,3.042,192,0.32,0.476,5.512063,0.363,54.58,63.69,34.41,36.51
"2017-04-19 17:30:00",284422,0.961,355.5,1.281,86.7,23.62265,0,857.857,0,13.11,3.042,199,0.306,0.482,8.230408,0.349,54.52,63.63,34.4,36.5
"2017-04-19 17:40:00",284423,0.772,334.7,1.216,85,14.66207,0,857.8907,0,13.08,3.042,191,0.288,0.479,5.144529,0.353,54.52,63.63,34.4,36.5
"2017-04-19 17:50:00",284424,1.318,293.8,1.265,83.7,8.776429,0,858.1562,0,13.1,3.042,196,0.288,0.496,3.317376,0.382,54.52,63.69,34.4,36.51
"2017-04-19 18:00:00",284425,1.253,279.6,1.297,83.9,5.375448,0,858.4132,0,13.09,3.042,188,0.3,0.51,2.077731,0.385,54.52,63.63,34.4,36.5
"2017-04-19 18:10:00",284426,1.65,302.6,1.417,81.2,3.763454,0,858.4448,0,13.11,3.041,199,0.312,0.529,1.4674,0.392,54.52,63.63,34.4,36.5
"2017-04-19 18:20:00",284427,1.327,300.4,1.428,79.55,1.958468,0,858.6512,0,13.11,3.041,198,0.311,0.546,0.8417883,0.432,54.52,63.57,34.4,36.49
"2017-04-19 18:30:00",284428,0.798,299,1.46,79.89,0.9792595,0,858.9125,0,12.98,3.042,180,0.311,0.556,0.4967443,0.549,54.46,63.57,34.38,36.49
"2017-04-19 18:40:00",284429,1.311,315.6,1.408,79.15,0.09832038,0,859.1675,0,13.13,3.041,188,0.299,0.578,0.2502715,0.209,54.46,63.63,34.38,36.5
"2017-04-19 18:50:00",284430,0.831,289.8,1.451,78.24,0,0,859.3893,0,13.22,3.04,219,0.311,0.571,0.1668491,0,54.46,63.51,34.38,36.47
"2017-04-19 19:00:00",284431,1.242,320,1.35,77.09,0,0,859.5814,0,12.97,3.043,194,0.307,0.579,0.1820183,0,54.46,63.57,34.38,36.49
"2017-04-19 19:10:00",284432,1.44,308.9,1.304,76.65,0,0,859.7281,0,13.12,3.042,188,0.327,0.581,0.1668515,0,54.46,63.57,34.38,36.49
"2017-04-19 19:20:00",284433,1.633,282.8,1.314,74.16,0,0,859.9053,0,13.17,3.041,202,0.336,0.585,0.09480257,0,54.46,63.51,34.38,36.47
"2017-04-19 19:30:00",284434,1.587,316,1.356,72.93,0,0,860.0546,0,13,3.042,186,0.327,0.585,0,0,54.46,63.51,34.38,36.47
"2017-04-19 19:40:00",284435,1.595,313.3,1.429,71.45,0,0,860.2369,0,13.07,3.042,186,0.31,0.59,0,0,54.46,63.45,34.38,36.46
"2017-04-19 19:50:00",284436,1.406,292.4,1.33,73.19,0,0,860.2742,0,12.97,3.043,190,0.337,0.588,0,0,54.46,63.45,34.38,36.46
"2017-04-19 20:00:00",284437,1.102,297.1,1.299,73.98,0,0,860.4618,0,13.02,3.042,190,0.35,0.588,0,0,54.41,63.45,34.37,36.46
"2017-04-19 20:10:00",284438,0.946,314.1,1.288,73.8,0,0,860.5953,0,13.12,3.042,189,0.34,0.59,0,0,54.41,63.45,34.37,36.46
"2017-04-19 20:20:00",284439,1.385,287.2,1.224,76.11,0,0,860.9366,0,13.06,3.043,193,0.31,0.591,0,0,54.41,63.39,34.37,36.44
"2017-04-19 20:30:00",284440,0.536,345.4,1.183,77.38,0,0,861.0066,0,12.92,3.044,190,0.303,0.591,0,0,54.41,63.39,34.37,36.44
"2017-04-19 20:40:00",284441,0.742,304.6,1.157,77.98,0,0,861.2401,0,12.99,3.044,190,0.316,0.592,0,0,54.41,63.32,34.37,36.43
"2017-04-19 20:50:00",284442,0.74,192.6,1.036,81.4,0,0,861.2599,0,12.96,3.045,192,0.311,0.59,0,0,54.35,63.32,34.36,36.43
"2017-04-19 21:00:00",284443,1.04,167.9,0.851,84,0,0,861.3187,0,13.06,3.045,208,0.317,0.593,0,0,54.35,63.32,34.36,36.43
"2017-04-19 21:10:00",284444,1.372,172.1,0.717,85.9,0,0,861.2643,0,13.1,3.045,211,0.33,0.592,0,0,54.35,63.26,34.36,36.42
"2017-04-19 21:20:00",284445,0.429,202.6,0.711,87.5,0,0,861.2618,0,13.03,3.046,201,0.313,0.593,0,0,54.35,63.26,34.36,36.42
"2017-04-19 21:30:00",284446,0.576,209.1,0.644,88.6,0,0,860.9765,0,13,3.047,206,0.305,0.593,0,0,54.29,63.2,34.34,36.4
"2017-04-19 21:40:00",284447,0.64,284.6,0.454,89.1,0,0,860.9949,0,13.07,3.047,206,0.302,0.593,0,0,54.29,63.2,34.34,36.4
"2017-04-19 21:50:00",284448,0.693,262.2,0.45,88.3,0,0,860.9891,0,13.05,3.047,206,0.309,0.593,0,0,54.35,63.14,34.36,36.39
"2017-04-19 22:00:00",284449,0.704,220.2,0.39,88.8,0,0,861.1146,0,13.1,3.047,209,0.316,0.593,0,0,54.29,63.2,34.34,36.4
"2017-04-19 22:10:00",284450,0.633,191.6,0.288,87.9,0,0,861.3564,0,12.95,3.048,204,0.321,0.593,0,0,54.29,63.14,34.34,36.39
"2017-04-19 22:20:00",284451,0.48,196.9,0.424,86.1,0,0,861.5094,0,12.85,3.049,185,0.331,0.593,0,0,54.29,63.14,34.34,36.39
"2017-04-19 22:30:00",284452,0.484,245,0.416,85,0,0,861.5433,0,13.15,3.046,192,0.332,0.593,0,0,54.29,63.14,34.34,36.39
"2017-04-19 22:40:00",284453,1.088,284.5,0.685,77.55,0,0,861.5159,0,13.18,3.044,208,0.325,0.593,0,0,54.24,63.08,34.33,36.38
"2017-04-19 22:50:00",284454,1.24,287.8,0.765,75.67,0,0,861.6931,0,13.16,3.044,211,0.315,0.593,0,0,54.24,63.08,34.33,36.38
"2017-04-19 23:00:00",284455,1.19,282.7,0.758,76.28,0,0,861.9122,0,12.98,3.046,192,0.314,0.593,0,0,54.24,63.02,34.33,36.36
"2017-04-19 23:10:00",284456,1.203,281.2,0.647,77.87,0,0,861.8785,0,12.95,3.047,195,0.308,0.593,0,0,54.18,63.02,34.32,36.36
"2017-04-19 23:20:00",284457,1.057,270.3,0.443,80.7,0,0,861.7415,0,13.02,3.048,204,0.324,0.593,0,0,54.18,63.02,34.32,36.36
"2017-04-19 23:30:00",284458,0.82,244.3,0.227,83.8,0,0,861.8553,0,13.09,3.048,194,0.333,0.588,0,0,54.24,62.96,34.33,36.35
"2017-04-19 23:40:00",284459,0.604,225.3,0.135,83.8,0,0,861.9354,0,12.84,3.051,213,0.333,0.591,0,0,54.18,62.96,34.32,36.35
"2017-04-19 23:50:00",284460,0.616,255.7,0.08,84,0,0,862.0871,0,13.17,3.048,203,0.333,0.586,0,0,54.18,62.9,34.32,36.34
